Tracking 30995 objects as of 7-Jul-2025
HD Live streaming from Space Station
objects crossing your sky now

COSMOS 2499

Track COSMOS 2499 now!
10-day predictions
COSMOS 2499 is classified as:


NORAD ID: 39765
Int'l Code: 2014-028E
Perigee: 1,157.6 km
Apogee: 1,516.4 km
Inclination: 82.5 °
Period: 112.2 minutes
Semi major axis: 7707 km
RCS: Unknown
Launch date: May 23, 2014
Source: Commonwealth of Independent States (former USSR) (CIS)
Launch site: PLESETSK MISSILE AND SPACE COMPLEX (PKMTR)

Uplink (MHz):
Downlink (MHz): 435.465
Beacon (MHz): 435.465/435.565
Mode: CW
Call sign:
Status:

Your satellite tracking list
COSMOS 1823 DEB
Track 1 satellite(s)




NASA's NSSDC Master Catalog

Two Line Element Set (TLE):
1 39765U 14028E   25187.87001054  .00000010  00000-0 -12639-4 0  9990
2 39765  82.4502 125.4628 0232787  92.2705 270.5070 12.82893064520961
Source of the keplerian elements: Caltech